Current weather by "City, St" or "zip code"  
 

Current Conditions: Monett, MO

Overcast


43.0 F

Last Updated on Oct 24 2020, 8:55 pm CDT
Humidity: 81%
Wind Speed: E 4.6 mph
Barometer 30.05 in
Dewpoint: 37.4 F
Visibility: 10.00 mi
Precip: --
Heat Index: NA
Wind Chill: 40 F
Current conditions at:

Monett, MO (KHFJ)

Lat: 36.9062 Lon: 94.0128

Local Radar Image active severe weather and emergency alerts image image weather storm and storm spotter reports image weather observation monitoring service image
Local
Radar
Active
Alerts
Storm Reports Obs
Monitoring

Sign-up For Email & Text Message Weather Alert Notification Services



Advertise Here

Observation History for Monett, MO


Time Wind
(mph)
Vis
(mi)
Weather Precip (in) Temperature (F) Relative
Humidity
Wind
Chill
(F)
Heat
Index
(F)
Pressure
Air Dwpt altimeter
(in)
sea level
(mb)
Rmks
8:55 pm CDT E 4.6 10.00 Overcast -- 43.0 37.4 81% 40 NA 30.05 M
7:55 pm CDT E 4.6 10.00 Overcast -- 43.0 37.4 81% 40 NA 30.04 M
6:55 pm CDT E 5.8 10.00 Overcast -- 43.0 37.4 81% 39 NA 30.03 M
5:55 pm CDT E 4.6 10.00 Overcast -- 45.0 37.4 76% 43 NA 30.03 M
4:55 pm CDT SE 3.5 10.00 Overcast -- 45.0 35.6 71% NA NA 30.04 M
3:55 pm CDT E 3.5 10.00 Overcast -- 45.0 35.6 71% NA NA 30.04 M
2:55 pm CDT E 3.5 10.00 Overcast -- 45.0 35.6 71% NA NA 30.07 M
1:55 pm CDT E 8.1 10.00 Overcast -- 43.0 35.6 76% 38 NA 30.09 M
12:55 pm CDT E 8.1 10.00 Overcast -- 43.0 33.8 71% 38 NA 30.14 M
11:55 am CDT NE 6.9 10.00 Overcast -- 43.0 33.8 71% 39 NA 30.17 M
10:55 am CDT E 5.8 10.00 Overcast -- 41.0 33.8 76% 37 NA 30.18 M
9:55 am CDT NE 9.2 10.00 Overcast -- 41.0 32.0 70% 35 NA 30.19 M
8:55 am CDT NE 6.9 10.00 Overcast -- 37.0 32.0 81% 32 NA 30.19 M
7:55 am CDT NE 9.2 10.00 Overcast -- 37.0 32.0 81% 30 NA 30.19 M
6:55 am CDT NE 8.1 10.00 Overcast -- 37.0 32.0 81% 31 NA 30.19 M
5:55 am CDT NE 11.5 10.00 Overcast -- 37.0 32.0 81% 29 NA 30.20 M
4:55 am CDT N 9.2 10.00 Overcast -- 37.0 32.0 81% 30 NA 30.21 M
3:55 am CDT N 10.4 10.00 Overcast -- 37.0 32.0 81% 30 NA 30.23 M
2:55 am CDT N 12.7 10.00 Overcast -- 37.0 32.0 81% 29 NA 30.25 M
1:55 am CDT N 10.4 10.00 Overcast -- 39.0 32.0 75% 32 NA 30.27 M
12:55 am CDT N 12.7 10.00 Overcast -- 41.0 32.0 70% 34 NA 30.27 M
11:55 pm CDT N 8.1 10.00 Overcast -- 41.0 33.8 76% 36 NA 30.28 M
10:55 pm CDT N 9.2 10.00 Overcast -- 41.0 33.8 76% 35 NA 30.28 M
9:55 pm CDT N 12.7 G 24.2 10.00 Overcast -- 41.0 33.8 76% 34 NA 30.27 M

Regional Weather Observation


Monett, MO (KHFJ)

Overcast
43.0 F

Atkinson Municipal Airport, KS (KPTS)

Overcast
43.0 F

Grove, Grove Municipal Airport, OK (KGMJ)

Overcast
45.0 F

Springfield, Springfield Regional Airport, MO (KSGF)

Overcast
44.0 F

Rogers - Rogers Executive Airport - Carter Field, AR (KROG)

Overcast
43.0 F

Bentonville, Bentonville Municipal Airport/Louise M Thaden Field, AR (KVBT)

Overcast
44.0 F